Probability
10 10 10 6 3 0 0 0 0 0 0 0 0 0 0 0 0 0 0 16 19 16 10 13 10 13 16 13 13 16 16 16 13 16 13 13 10 13 16 16 19 19 16
10 10 10 3 3 0 0 0 0 0 0 0 0 0 0 0 0 0 0 3 10 13 16 10 10 13 16 16 13 10 10 13 13 10 6 16 13 13 13 16 16 19 16
6 6 3 0 0 3 3 0 0 0 0 0 0 0 0 0 0 0 0 0 0 6 13 3 6 6 6 10 6 6 6 10 10 10 6 10 6 10 13 13 13 16 16
3 6 3 3 0 0 0 0 0 0 0 0 0 0 0 0 0 0 0 0 0 0 3 3 6 6 6 6 6 10 10 10 10 10 13 13 13 6 13 6 13 16 13
6 6 10 3 0 0 3 0 0 0 3 0 0 0 0 0 0 0 0 0 0 0 0 3 3 3 6 6 6 6 6 6 6 10 10 16 16 13 6 6 6 6 6
0 6 6 3 3 3 3 3 0 3 3 3 0 0 0 0 0 0 0 0 0 0 0 0 0 3 3 3 3 6 6 6 6 6 10 10 16 10 3 6 6 6 6
0 0 0 0 3 3 3 3 3 0 0 3 0 0 0 0 0 0 0 0 0 0 0 0 0 0 3 3 3 6 6 6 6 6 6 6 6 10 3 3 6 6 6
0 0 3 0 3 3 3 6 6 3 0 0 0 0 0 0 0 0 0 0 0 0 0 0 0 0 0 0 0 3 6 6 6 6 6 6 6 10 10 3 3 6 6
3 0 3 3 0 3 3 3 6 3 3 0 0 0 0 0 0 0 0 0 0 0 0 0 0 0 0 0 0 0 3 6 10 6 6 3 6 6 10 6 6 6 6
0 0 0 0 0 0 3 3 6 6 3 0 0 0 0 0 0 0 0 0 0 0 0 0 0 0 0 0 0 0 0 3 6 10 6 6 3 6 6 6 10 10 6
3 3 3 0 0 0 0 6 6 6 6 0 0 0 0 0 0 0 0 0 0 0 0 0 0 0 0 0 0 3 0 0 3 6 6 10 10 13 13 10 10 6 6
3 3 3 6 3 3 3 6 6 3 3 3 0 0 0 0 0 0 0 0 0 0 0 0 0 0 0 0 0 0 0 0 0 6 6 6 13 16 13 10 6 6 10
3 3 3 3 3 3 3 3 3 3 3 3 3 0 0 0 0 0 0 0 0 0 0 0 0 0 0 0 0 0 0 0 3 3 6 6 6 10 16 10 10 13 10
0 3 0 3 3 3 3 3 3 3 3 6 3 0 0 0 0 0 0 0 0 0 0 0 0 0 0 0 0 0 0 0 0 0 0 3 3 3 10 10 13 10 13
3 0 3 3 0 3 3 3 3 3 3 6 6 3 0 0 0 0 0 0 0 0 0 0 0 0 0 0 0 0 0 0 0 0 0 0 0 0 3 3 10 10 10
3 0 0 0 0 0 0 3 3 6 6 6 6 3 3 0 0 0 0 0 0 0 0 0 0 0 0 3 0 0 0 0 0 0 0 0 0 0 0 0 6 10 10
3 0 0 0 0 0 0 0 0 3 3 0 0 0 3 3 0 0 0 0 0 0 0 0 0 0 0 0 0 0 0 0 0 0 0 0 0 0 0 0 0 0 3
0 0 0 0 0 0 0 0 0 0 0 0 0 0 0 0 0 0 0 0 0 0 3 3 0 0 0 0 0 0 0 0 0 0 0 0 0 0 0 0 0 0 0
0 0 0 0 0 0 0 0 0 0 0 0 0 0 0 0 0 0 0 0 0 0 0 0 0 0 0 0 0 0 0 0 0 0 0 0 0 0 0 0 0 0 0
0 0 0 0 0 0 0 0 0 0 0 0 0 0 0 0 0 0 0 0 0 0 0 0 0 0 0 0 0 0 0 0 0 0 0 0 0 0 0 0 0 0 0
0 0 0 0 0 0 0 0 0 0 0 0 0 0 0 0 0 0 0 0 0 0 0 0 0 0 0 0 0 0 0 0 0 0 0 0 0 0 0 0 0 0 0
0 0 0 0 0 0 0 0 0 0 0 0 0 0 0 0 0 0 0 0 0 0 0 0 0 0 0 0 0 0 0 0 0 0 0 0 0 0 0 0 0 0 0
0 0 0 0 0 0 0 0 0 0 0 0 0 0 0 0 0 0 0 0 0 0 0 0 0 0 0 0 0 0 0 0 0 0 0 0 0 0 0 0 0 0 0
0 0 0 0 0 0 0 0 0 0 0 0 0 0 0 0 0 0 0 0 0 0 0 0 0 0 0 0 0 0 0 0 0 0 0 0 0 0 0 0 0 0 0
0 0 0 0 0 0 0 0 0 0 0 0 0 0 0 0 0 0 0 0 0 0 0 0 0 0 0 0 0 0 0 0 0 0 0 0 0 0 0 0 0 0 0
3 0 0 0 0 0 0 0 0 0 0 0 0 0 0 0 0 0 0 0 0 0 0 0 0 0 0 0 0 0 0 0 0 0 0 0 0 0 0 0 0 0 0
Height
5854 5854 5854 5853 5853 5852 5852 5851 5851 5850 5849 5849 5848 5848 5848 5847 5847 5846 5846 5845 5845 5844 5844 5843 5843 5843 5842 5842 5841 5842 5842 5842 5842 5842 5842 5842 5842 5842 5842 5843 5843 5843 5843
5852 5852 5852 5851 5851 5850 5850 5849 5849 5848 5848 5847 5847 5846 5845 5845 5845 5844 5844 5843 5843 5843 5842 5842 5841 5841 5840 5839 5839 5839 5839 5839 5839 5839 5839 5840 5840 5840 5840 5840 5841 5841 5841
5850 5850 5850 5849 5849 5848 5848 5847 5847 5846 5846 5845 5845 5844 5844 5843 5843 5842 5842 5841 5841 5841 5840 5840 5839 5838 5838 5837 5836 5835 5835 5835 5836 5836 5837 5837 5837 5837 5838 5838 5838 5839 5839
5848 5848 5848 5847 5847 5846 5846 5845 5845 5844 5844 5843 5843 5842 5842 5841 5841 5841 5840 5839 5839 5838 5838 5837 5837 5836 5835 5834 5833 5832 5832 5832 5832 5833 5834 5834 5834 5835 5835 5836 5836 5836 5837
5846 5845 5845 5845 5845 5844 5844 5843 5843 5842 5842 5842 5841 5841 5840 5839 5839 5839 5838 5837 5837 5836 5835 5835 5834 5833 5832 5831 5830 5830 5829 5829 5829 5830 5830 5831 5832 5832 5832 5833 5833 5834 5834
5844 5843 5843 5843 5843 5842 5842 5841 5840 5840 5840 5839 5839 5838 5838 5837 5837 5836 5836 5835 5834 5834 5833 5832 5831 5830 5830 5829 5828 5827 5827 5827 5827 5827 5827 5828 5828 5829 5829 5830 5831 5831 5831
5842 5841 5841 5841 5840 5840 5839 5839 5838 5838 5837 5837 5836 5836 5835 5835 5834 5833 5833 5832 5832 5831 5831 5830 5829 5828 5827 5826 5826 5825 5824 5824 5824 5824 5824 5825 5825 5826 5826 5827 5827 5828 5828
5840 5839 5839 5838 5838 5837 5837 5836 5836 5835 5834 5834 5834 5833 5833 5832 5831 5830 5830 5829 5829 5828 5828 5827 5826 5825 5824 5823 5823 5822 5821 5821 5821 5821 5821 5821 5822 5823 5823 5824 5824 5824 5825
5837 5837 5836 5836 5835 5834 5834 5833 5833 5832 5832 5831 5830 5830 5829 5829 5828 5827 5826 5826 5825 5825 5824 5823 5823 5822 5821 5820 5819 5819 5818 5818 5817 5818 5818 5818 5819 5819 5820 5820 5821 5821 5821
5834 5834 5833 5833 5832 5831 5831 5830 5830 5829 5828 5827 5827 5826 5825 5825 5824 5824 5823 5822 5822 5821 5821 5820 5819 5818 5818 5817 5816 5815 5815 5814 5814 5814 5815 5815 5815 5816 5816 5816 5817 5817 5818
5831 5830 5830 5829 5829 5828 5827 5827 5826 5825 5824 5824 5823 5822 5821 5820 5820 5820 5819 5819 5818 5817 5817 5816 5815 5815 5814 5813 5813 5812 5811 5811 5811 5811 5811 5811 5812 5812 5812 5813 5813 5814 5814
5827 5826 5826 5825 5825 5824 5823 5822 5822 5821 5820 5819 5818 5818 5817 5816 5816 5815 5815 5814 5814 5813 5812 5812 5811 5811 5810 5809 5809 5808 5808 5807 5807 5807 5808 5808 5808 5809 5809 5809 5809 5810 5810
5823 5822 5822 5821 5820 5820 5819 5818 5817 5816 5815 5814 5814 5813 5812 5811 5811 5810 5809 5809 5809 5809 5808 5807 5807 5806 5806 5805 5804 5804 5803 5803 5803 5803 5804 5804 5804 5804 5805 5805 5805 5806 5806
5818 5817 5817 5816 5815 5815 5814 5813 5812 5811 5810 5809 5808 5807 5807 5806 5805 5804 5804 5804 5803 5803 5803 5803 5802 5802 5801 5800 5800 5799 5799 5799 5799 5799 5799 5799 5800 5800 5800 5800 5801 5801 5802
5812 5812 5811 5811 5810 5809 5808 5808 5806 5805 5804 5803 5802 5801 5801 5800 5799 5798 5798 5798 5798 5798 5798 5797 5797 5796 5796 5795 5795 5795 5795 5794 5794 5794 5795 5795 5795 5795 5795 5796 5796 5797 5797
5805 5805 5805 5804 5804 5803 5802 5801 5800 5799 5797 5796 5795 5794 5794 5793 5792 5792 5791 5791 5791 5791 5791 5791 5791 5790 5790 5790 5790 5789 5789 5789 5789 5789 5789 5789 5790 5790 5790 5790 5791 5791 5792
5798 5798 5798 5797 5797 5796 5795 5794 5793 5791 5790 5789 5788 5787 5786 5786 5785 5785 5784 5784 5784 5783 5784 5784 5784 5784 5783 5783 5783 5783 5784 5784 5784 5784 5784 5784 5784 5784 5784 5785 5785 5786 5786
5791 5791 5790 5789 5789 5788 5787 5786 5785 5784 5783 5781 5780 5779 5778 5778 5777 5777 5776 5776 5776 5776 5776 5776 5776 5776 5776 5776 5777 5777 5777 5777 5778 5778 5778 5778 5778 5778 5778 5778 5779 5779 5780
5782 5782 5782 5781 5780 5779 5779 5778 5776 5775 5774 5773 5772 5771 5771 5770 5769 5768 5768 5768 5767 5767 5767 5768 5768 5768 5769 5769 5769 5770 5770 5770 5771 5771 5772 5772 5772 5772 5772 5772 5772 5773 5773
5774 5773 5773 5772 5771 5770 5769 5768 5767 5766 5765 5764 5763 5763 5762 5761 5760 5760 5759 5759 5758 5758 5758 5759 5759 5759 5760 5761 5761 5762 5762 5763 5764 5764 5764 5765 5765 5765 5765 5766 5766 5766 5767
5764 5764 5763 5763 5762 5761 5760 5759 5758 5757 5756 5755 5754 5753 5752 5752 5751 5750 5750 5750 5750 5750 5750 5750 5750 5750 5751 5752 5753 5753 5754 5755 5756 5756 5757 5758 5758 5758 5758 5759 5759 5759 5760
5755 5754 5754 5753 5752 5751 5750 5749 5748 5747 5746 5745 5744 5743 5743 5742 5742 5741 5741 5741 5740 5740 5740 5741 5741 5741 5742 5743 5744 5744 5745 5747 5748 5749 5749 5750 5751 5751 5751 5751 5752 5752 5753
5745 5745 5744 5743 5742 5741 5739 5738 5737 5736 5735 5734 5733 5733 5732 5732 5732 5732 5731 5731 5731 5730 5731 5731 5731 5732 5733 5734 5735 5736 5736 5737 5739 5739 5740 5741 5742 5743 5744 5744 5744 5745 5745
5735 5734 5733 5732 5731 5730 5729 5727 5726 5725 5724 5723 5722 5722 5721 5722 5722 5721 5721 5721 5721 5721 5721 5721 5721 5722 5723 5724 5725 5726 5727 5728 5729 5730 5731 5732 5733 5734 5735 5736 5736 5737 5737
5724 5723 5723 5721 5720 5719 5718 5716 5715 5714 5713 5713 5712 5711 5710 5711 5711 5710 5710 5710 5710 5711 5711 5711 5711 5712 5713 5714 5715 5716 5717 5718 5720 5721 5722 5723 5724 5725 5726 5727 5727 5728 5728
5713 5712 5711 5710 5708 5707 5706 5705 5703 5703 5702 5702 5702 5701 5700 5699 5699 5699 5699 5699 5700 5700 5701 5701 5701 5702 5702 5704 5705 5706 5707 5708 5709 5711 5712 5713 5714 5715 5717 5718 5718 5719 5720
Wind_Speed
11 11 11 11 12 12 12 11 11 11 11 11 11 10 10 11 11 11 10 9 9 9 9 10 11 12 12 12 11 11 11 11 10 10 10 10 10 10 9 9 8 8 7
11 11 11 11 11 12 12 12 11 11 11 11 11 10 10 10 11 11 10 9 10 10 10 11 11 11 12 12 12 11 11 11 11 10 10 10 9 9 9 9 8 8 8
10 10 10 11 12 12 12 12 12 12 11 11 11 11 11 11 11 11 10 10 10 10 11 11 11 11 12 12 12 11 11 11 11 10 10 10 10 9 8 9 8 8 8
10 10 11 11 11 12 12 12 12 12 12 11 11 11 11 11 10 10 10 10 10 11 11 11 10 11 11 11 11 11 11 11 11 10 10 10 10 9 9 9 9 9 9
11 11 10 11 11 12 12 12 12 12 12 12 12 12 12 12 11 11 11 11 11 12 11 10 10 11 11 11 11 11 12 11 11 11 11 10 9 10 10 10 10 9 9
11 11 11 11 11 11 12 12 12 12 12 12 12 13 13 13 13 13 12 12 12 12 11 12 11 11 11 12 12 12 12 12 11 11 11 11 10 10 10 10 10 10 10
12 12 12 11 12 12 13 12 12 13 13 13 13 14 14 14 14 14 14 13 13 13 13 13 12 13 13 13 13 13 12 12 12 12 11 10 10 10 11 11 11 11 11
13 13 12 13 13 13 13 13 13 13 14 14 14 14 15 15 15 14 14 14 13 14 14 14 14 14 14 14 14 13 13 13 13 13 12 11 11 11 12 12 12 12 12
14 14 13 14 14 14 14 14 14 14 15 15 15 15 15 15 15 15 15 14 14 14 14 14 14 13 14 14 13 13 13 13 13 13 12 12 12 12 12 13 13 13 13
15 15 15 15 16 15 15 15 15 15 16 16 16 16 16 16 16 15 15 16 16 16 15 15 14 14 14 14 14 13 13 13 12 12 12 12 12 12 12 12 13 13 13
16 16 17 17 17 17 17 17 17 17 17 17 17 17 17 18 17 17 16 17 17 17 17 16 15 15 15 15 15 14 14 13 13 13 13 13 13 13 13 13 13 14 13
17 17 17 17 17 18 18 18 18 18 18 17 18 18 18 18 18 18 18 18 18 17 17 17 17 17 17 17 16 15 15 15 14 14 13 13 14 14 14 14 14 14 14
18 18 18 18 18 19 19 19 19 20 20 19 19 19 19 19 20 20 19 19 19 19 18 18 18 18 18 18 17 16 16 16 16 15 15 15 15 15 15 15 15 15 14
20 20 20 20 20 20 20 20 21 21 22 21 20 20 20 21 21 21 21 20 20 20 19 19 19 19 19 19 18 17 17 16 17 17 17 16 16 15 15 15 15 16 16
22 21 22 21 21 22 22 22 22 23 23 23 23 23 23 23 22 22 22 22 22 21 21 21 20 20 20 20 19 18 18 17 18 18 18 17 17 16 17 17 17 17 17
23 23 23 23 23 23 24 24 24 24 25 25 25 25 25 25 24 24 24 24 23 23 22 22 22 22 22 21 20 19 19 19 19 19 19 19 19 19 18 18 18 18 18
25 25 25 26 26 26 26 26 26 26 26 26 27 27 27 26 26 25 25 25 25 25 24 24 24 24 23 23 22 21 21 20 20 20 20 20 19 19 19 19 19 19 19
27 27 27 28 28 28 28 27 27 27 27 28 28 28 28 28 28 28 27 27 27 26 26 26 26 25 25 24 23 23 22 22 22 21 21 21 21 21 21 21 21 21 21
28 29 29 29 29 29 29 29 29 29 29 29 29 29 29 29 29 29 29 29 29 28 28 28 28 27 27 26 26 25 25 24 24 23 22 22 22 22 22 21 21 21 21
30 30 31 31 30 30 30 30 31 31 31 31 31 31 31 31 30 30 30 29 29 29 29 29 29 28 28 28 27 26 26 25 25 25 24 24 24 24 23 22 22 22 22
31 31 31 31 31 32 32 32 32 33 33 33 33 32 32 32 31 30 30 30 30 30 30 29 29 29 29 28 27 27 27 26 26 26 26 26 25 24 24 24 23 23 23
32 32 32 32 32 33 33 34 34 34 34 35 35 34 33 33 32 32 32 31 31 31 31 31 30 30 28 28 28 28 28 27 27 27 27 27 26 25 24 24 24 24 24
33 33 33 33 33 33 34 35 35 35 36 35 35 35 34 34 34 34 33 33 32 32 32 32 31 31 30 29 29 29 29 28 28 28 28 27 27 26 25 25 25 25 25
34 34 35 35 34 34 35 35 35 36 35 35 35 35 35 35 35 35 34 34 34 33 32 32 32 31 31 31 31 30 29 29 29 28 29 28 28 28 27 27 27 27 27
35 35 36 36 36 36 37 37 36 36 35 34 35 35 35 35 35 35 35 35 34 33 33 33 33 32 32 31 31 31 31 31 30 29 30 29 29 29 29 28 28 28 28
37 37 37 38 38 38 38 37 36 36 35 35 35 34 34 35 35 35 35 35 34 33 33 33 33 32 31 32 32 32 32 32 32 31 30 30 30 30 30 30 29 29 29
Wind_Direction
291 290 291 294 297 300 303 305 305 301 301 302 303 303 304 305 300 296 293 292 292 295 295 294 291 291 290 292 291 289 286 286 287 286 278 278 279 277 282 278 276 278 281
289 290 291 294 298 300 302 302 300 299 299 301 304 303 303 305 307 306 301 295 294 295 296 297 294 295 295 295 290 286 287 285 283 279 277 276 277 277 277 275 275 277 282
289 289 292 296 298 299 299 300 300 299 300 301 303 303 304 305 306 305 304 301 300 299 299 298 297 297 298 296 289 286 288 286 281 278 277 276 274 275 276 277 277 278 280
291 290 292 297 300 300 299 298 300 299 298 298 300 302 304 305 305 306 307 305 303 302 299 297 299 300 296 294 293 292 291 288 281 276 275 276 275 278 277 275 274 277 277
294 292 294 296 298 298 297 297 298 297 296 296 296 297 299 301 302 303 303 303 301 299 299 298 296 294 293 291 291 293 295 290 282 274 272 272 275 276 275 274 272 271 274
294 294 297 297 298 297 296 297 296 296 295 294 293 294 295 295 296 298 299 299 300 298 300 299 297 295 294 293 292 293 291 288 285 279 273 272 273 273 273 272 271 272 272
294 297 293 295 298 298 296 296 295 294 294 293 293 293 294 294 293 293 294 294 294 295 297 297 296 298 298 296 295 294 292 287 286 284 280 277 277 275 272 272 272 272 272
295 295 294 294 295 296 295 295 293 293 292 291 291 291 292 295 294 291 291 291 291 293 296 297 295 295 298 298 298 296 294 289 287 284 282 278 276 276 274 271 271 272 273
295 295 295 295 295 295 295 295 293 292 291 290 290 290 289 290 293 293 293 290 290 293 294 298 298 296 296 298 297 295 294 290 285 280 277 277 277 277 276 273 272 273 274
295 295 293 294 295 294 293 293 292 291 291 290 290 289 289 288 287 289 291 291 290 290 291 295 295 295 295 295 295 293 291 288 285 280 276 275 278 278 275 274 273 274 274
292 292 292 293 294 294 293 292 291 291 290 289 288 287 286 287 287 285 287 290 291 291 289 289 290 293 294 293 293 289 287 286 284 279 276 275 275 278 279 278 276 275 274
289 290 290 291 292 293 292 292 292 293 291 289 288 286 285 286 287 287 287 287 289 289 289 290 289 290 291 291 289 286 284 283 280 278 275 273 274 276 277 275 275 275 272
286 287 287 288 290 291 291 291 292 293 292 288 287 286 286 286 286 287 288 288 287 287 286 288 289 291 292 291 288 285 283 280 278 276 273 272 274 275 274 272 271 273 273
284 284 285 287 286 287 289 290 290 291 290 288 286 285 285 284 285 285 285 286 285 285 283 283 285 288 291 290 287 284 283 279 277 275 273 271 274 275 274 271 270 272 273
282 283 284 285 286 287 287 289 290 289 288 288 287 285 284 284 284 284 283 283 283 283 282 281 282 283 285 286 284 282 282 279 278 276 273 272 274 274 272 271 271 273 274
280 281 282 283 285 286 287 288 288 288 287 287 286 285 284 285 285 284 282 282 281 281 281 279 281 281 281 282 281 280 279 279 278 276 275 274 275 274 273 272 272 271 272
280 281 282 283 283 284 285 286 286 287 287 286 287 286 284 283 283 282 281 280 280 280 281 279 280 279 279 279 278 276 276 278 278 277 276 275 276 275 274 272 271 270 270
279 279 282 283 282 283 283 284 285 285 285 284 286 286 284 283 283 282 281 280 280 279 279 278 278 278 277 277 276 273 274 276 276 276 275 274 275 275 274 273 272 271 270
278 278 280 282 282 282 283 283 283 283 282 282 283 284 283 282 282 282 281 280 279 278 278 277 276 276 276 276 275 274 273 273 273 273 273 272 273 274 273 272 271 271 271
278 279 280 281 281 281 282 282 282 281 281 281 281 282 283 281 282 281 280 279 278 277 277 277 276 276 275 274 274 274 272 271 270 270 270 270 272 273 272 271 270 270 271
279 279 280 280 280 281 282 280 281 282 281 281 281 281 281 280 279 280 280 278 277 276 276 275 275 274 273 273 272 271 271 270 270 269 269 268 270 272 272 270 269 270 271
280 280 280 280 281 282 282 281 280 280 281 281 279 279 279 279 278 279 279 277 277 276 276 275 273 273 273 271 271 270 270 270 269 269 268 268 269 270 270 269 268 269 270
282 281 281 281 282 283 283 282 281 280 280 280 278 277 277 277 276 277 277 276 277 277 275 273 273 272 270 270 270 270 269 270 270 269 268 267 268 268 267 267 267 267 268
282 282 282 281 282 282 283 283 282 281 279 278 278 277 276 276 275 276 276 275 276 276 275 274 274 271 269 267 268 269 269 269 269 269 269 268 267 266 265 266 266 267 268
281 282 282 282 282 282 282 282 281 280 278 278 277 277 277 276 275 275 275 275 274 273 274 274 273 271 269 267 267 267 268 269 268 268 268 267 266 265 265 265 265 265 266
281 281 281 282 282 281 281 281 280 279 277 277 277 277 276 275 275 273 273 274 273 272 273 273 272 271 268 265 265 265 267 268 268 268 267 267 267 266 264 264 264 265 266